| time (UTC) | temp F | wind direction | speed MPH | gust MPH | rain 1hr in | rain 24hr in | rain mn in | humidity % | barometer mb |
| 20260902021539 | 69 | 87 | 0.0 | 3.0 | 0.00 | 0.04 | 0.04 | 94 | 1016.5 |
| 20260902020104 | 70 | 148 | 0.0 | 2.0 | 0.00 | 0.04 | 0.04 | 94 | 1016.5 |
| 20260902014552 | 70 | 58 | 0.0 | 3.0 | 0.00 | 0.04 | 0.04 | 94 | 1016.6 |
| 20260902013018 | 70 | 127 | 1.0 | 3.0 | 0.00 | 0.04 | 0.04 | 93 | 1016.5 |
| 20260902011547 | 71 | 21 | 1.0 | 3.0 | 0.00 | 0.04 | 0.04 | 93 | 1016.5 |
| 20260902004548 | 71 | 87 | 0.0 | 0.0 | 0.00 | 0.04 | 0.04 | 92 | 1016.1 |
| 20260902003044 | 72 | 30 | 0.0 | 1.0 | 0.00 | 0.04 | 0.04 | 91 | 1015.8 |
| 20260902001530 | 72 | 15 | 0.0 | 4.0 | 0.00 | 0.04 | 0.04 | 91 | 1015.6 |
| 20260902000052 | 72 | 351 | 0.0 | 1.0 | 0.00 | 0.04 | 0.04 | 90 | 1015.3 |
| 20260901234544 | 73 | 163 | 0.0 | 2.0 | 0.00 | 0.04 | 0.04 | 89 | 1015.4 |
| 20260901233006 | 73 | 346 | 0.0 | 4.0 | 0.00 | 0.04 | 0.04 | 89 | 1015.4 |
| 20260901231557 | 74 | 134 | 0.0 | 3.0 | 0.00 | 0.04 | 0.04 | 88 | 1015.4 |
| 20260901230058 | 74 | 109 | 0.0 | 2.0 | 0.00 | 0.04 | 0.04 | 88 | 1015.6 |
| 20260901224606 | 75 | 61 | 0.0 | 4.0 | 0.00 | 0.04 | 0.04 | 88 | 1015.6 |
| 20260901224502 | 75 | 355 | 1.0 | 4.0 | 0.00 | 0.04 | 0.04 | 88 | 1015.6 |
| 20260901223009 | 76 | 5 | 0.0 | 4.0 | 0.00 | 0.04 | 0.04 | 88 | 1015.5 |
| 20260901221503 | 76 | 355 | 0.0 | 3.0 | 0.00 | 0.04 | 0.04 | 87 | 1015.5 |
| 20260901220101 | 76 | 355 | 1.0 | 3.0 | 0.00 | 0.05 | 0.04 | 87 | 1015.4 |
| 20260901214603 | 76 | 35 | 0.0 | 3.0 | 0.00 | 0.05 | 0.04 | 86 | 1015.5 |
| 20260901214503 | 76 | 49 | 1.0 | 3.0 | 0.00 | 0.05 | 0.04 | 86 | 1015.4 |
| 20260901213121 | 77 | 360 | 0.0 | 4.0 | 0.00 | 0.05 | 0.04 | 86 | 1015.4 |
| 20260901213002 | 77 | 360 | 0.0 | 4.0 | 0.00 | 0.05 | 0.04 | 86 | 1015.4 |
| 20260901211600 | 77 | 16 | 2.0 | 6.0 | 0.00 | 0.05 | 0.04 | 85 | 1015.4 |
| 20260901211503 | 77 | 19 | 2.0 | 6.0 | 0.00 | 0.05 | 0.04 | 85 | 1015.5 |
| 20260901210022 | 78 | 319 | 1.0 | 5.0 | 0.00 | 0.06 | 0.04 | 84 | 1015.3 |
| 20260901204514 | 77 | 36 | 0.0 | 3.0 | 0.00 | 0.06 | 0.04 | 85 | 1015.2 |
| 20260901203058 | 77 | 11 | 0.0 | 3.0 | 0.00 | 0.06 | 0.04 | 86 | 1015.2 |
| 20260901201545 | 76 | 74 | 1.0 | 5.0 | 0.00 | 0.06 | 0.04 | 87 | 1015.5 |
| 20260901200110 | 76 | 5 | 0.0 | 3.0 | 0.00 | 0.13 | 0.04 | 86 | 1015.7 |
| 20260901194559 | 77 | 9 | 0.0 | 4.0 | 0.00 | 0.13 | 0.04 | 87 | 1015.6 |
| 20260901194501 | 76 | 9 | 0.0 | 4.0 | 0.00 | 0.13 | 0.04 | 87 | 1015.6 |
| 20260901193021 | 76 | 17 | 1.0 | 6.0 | 0.00 | 0.13 | 0.04 | 87 | 1015.6 |
| 20260901191518 | 76 | 9 | 0.0 | 4.0 | 0.00 | 0.13 | 0.04 | 88 | 1015.6 |
| 20260901190007 | 75 | 20 | 1.0 | 6.0 | 0.00 | 0.54 | 0.04 | 87 | 1015.6 |
| 20260901184530 | 75 | 355 | 1.0 | 4.0 | 0.00 | 0.54 | 0.04 | 88 | 1015.7 |
| 20260901183056 | 76 | 17 | 1.0 | 7.0 | 0.00 | 0.54 | 0.04 | 87 | 1015.8 |
| 20260901181543 | 76 | 84 | 1.0 | 6.0 | 0.00 | 0.54 | 0.04 | 88 | 1015.7 |
| 20260901180040 | 77 | 350 | 1.0 | 9.0 | 0.00 | 0.69 | 0.04 | 86 | 1015.6 |
| 20260901174541 | 78 | 13 | 2.0 | 8.0 | 0.00 | 0.69 | 0.04 | 85 | 1015.2 |
| 20260901173040 | 78 | 19 | 3.0 | 6.0 | 0.00 | 0.69 | 0.04 | 86 | 1015.1 |
| 20260901171534 | 80 | 22 | 3.0 | 8.0 | 0.00 | 0.69 | 0.04 | 83 | 1015.1 |
| 20260901170036 | 81 | 343 | 2.0 | 4.0 | 0.00 | 0.80 | 0.04 | 81 | 1014.8 |
| 20260901164513 | 81 | 5 | 0.0 | 3.0 | 0.00 | 0.80 | 0.04 | 80 | 1014.8 |
| 20260901163011 | 81 | 250 | 0.0 | 4.0 | 0.00 | 0.80 | 0.04 | 83 | 1014.7 |
| 20260901161526 | 80 | 10 | 0.0 | 3.0 | 0.00 | 0.80 | 0.04 | 83 | 1014.8 |
| 20260901160027 | 79 | 328 | 1.0 | 5.0 | 0.00 | 0.85 | 0.04 | 84 | 1014.7 |
| 20260901154608 | 79 | 254 | 1.0 | 4.0 | 0.00 | 0.85 | 0.04 | 84 | 1014.7 |
| 20260901153106 | 78 | 329 | 1.0 | 3.0 | 0.00 | 0.85 | 0.04 | 85 | 1014.6 |
| 20260901153000 | 78 | 263 | 0.0 | 3.0 | 0.00 | 0.85 | 0.04 | 85 | 1014.7 |
| 20260901151559 | 78 | 49 | 1.0 | 3.0 | 0.00 | 0.85 | 0.04 | 89 | 1014.7 |
| 20260901151501 | 77 | 49 | 0.0 | 3.0 | 0.00 | 0.85 | 0.04 | 90 | 1014.7 |
| 20260901150104 | 77 | 28 | 0.0 | 2.0 | 0.00 | 0.96 | 0.04 | 93 | 1014.7 |
| 20260901144539 | 75 | 252 | 0.0 | 3.0 | 0.00 | 0.96 | 0.04 | 95 | 1014.8 |
| 20260901143039 | 74 | 265 | 0.0 | 2.0 | 0.00 | 0.96 | 0.04 | 97 | 1014.8 |
| 20260901141554 | 74 | 355 | 0.0 | 3.0 | 0.00 | 0.96 | 0.04 | 97 | 1014.5 |
| 20260901140051 | 73 | 24 | 1.0 | 3.0 | 0.00 | 1.18 | 0.04 | 98 | 1014.6 |
| 20260901134544 | 73 | 276 | 0.0 | 2.0 | 0.00 | 1.18 | 0.04 | 99 | 1014.6 |
| 20260901133040 | 73 | 259 | 0.0 | 2.0 | 0.00 | 1.18 | 0.04 | 99 | 1014.6 |
| 20260901131543 | 72 | 281 | 0.0 | 1.0 | 0.00 | 1.18 | 0.04 | 99 | 1014.8 |
| 20260901130015 | 72 | 295 | 0.0 | 2.0 | 0.00 | 1.31 | 0.04 | 99 | 1014.7 |
| 20260901124521 | 70 | 5 | 0.0 | 1.0 | 0.00 | 1.31 | 0.04 | 99 | 1014.8 |
| 20260901123055 | 70 | 5 | 0.0 | 1.0 | 0.00 | 1.31 | 0.04 | 99 | 1015.0 |
| 20260901121555 | 69 | 5 | 0.0 | 0.0 | 0.00 | 1.31 | 0.04 | 98 | 1014.9 |
| 20260901120108 | 69 | 5 | 0.0 | 1.0 | 0.00 | 1.34 | 0.04 | 98 | 1014.8 |
| 20260901114553 | 69 | 5 | 0.0 | 1.0 | 0.00 | 1.34 | 0.04 | 98 | 1014.5 |
| 20260901113059 | 69 | 5 | 0.0 | 1.0 | 0.00 | 1.34 | 0.04 | 98 | 1014.4 |
| 20260901111601 | 68 | 5 | 0.0 | 1.0 | 0.00 | 1.34 | 0.04 | 98 | 1014.5 |
| 20260901110058 | 68 | 5 | 0.0 | 3.0 | 0.00 | 1.34 | 0.04 | 98 | 1014.5 |
| 20260901104554 | 68 | 198 | 0.0 | 0.0 | 0.00 | 1.34 | 0.04 | 98 | 1014.2 |
| 20260901103106 | 68 | 198 | 0.0 | 0.0 | 0.00 | 1.34 | 0.04 | 98 | 1014.1 |
| 20260901103002 | 68 | 198 | 0.0 | 0.0 | 0.00 | 1.34 | 0.04 | 98 | 1014.0 |
| 20260901101504 | 68 | 198 | 0.0 | 1.0 | 0.00 | 1.34 | 0.04 | 98 | 1014.1 |
| 20260901100008 | 68 | 198 | 0.0 | 0.0 | 0.00 | 1.34 | 0.04 | 98 | 1013.9 |
| 20260901094517 | 68 | 198 | 0.0 | 1.0 | 0.00 | 1.34 | 0.04 | 98 | 1013.8 |
| 20260901093002 | 68 | 198 | 0.0 | 0.0 | 0.00 | 1.34 | 0.04 | 98 | 1013.7 |
| 20260901091609 | 68 | 198 | 0.0 | 3.0 | 0.00 | 1.34 | 0.04 | 98 | 1013.9 |
| 20260901084605 | 68 | 205 | 0.0 | 2.0 | 0.00 | 1.34 | 0.04 | 98 | 1014.1 |
| 20260901083024 | 68 | 158 | 0.0 | 2.0 | 0.00 | 1.34 | 0.04 | 98 | 1013.8 |
| 20260901081514 | 68 | 158 | 0.0 | 1.0 | 0.01 | 1.34 | 0.04 | 98 | 1013.7 |
| 20260901080015 | 68 | 163 | 0.0 | 2.0 | 0.01 | 1.34 | 0.04 | 98 | 1013.9 |
| 20260901074512 | 68 | 160 | 0.0 | 2.0 | 0.01 | 1.34 | 0.04 | 98 | 1014.2 |
| 20260901073009 | 68 | 210 | 0.0 | 2.0 | 0.01 | 1.34 | 0.04 | 98 | 1014.5 |
| 20260901071508 | 68 | 157 | 0.0 | 1.0 | 0.00 | 1.33 | 0.03 | 98 | 1014.7 |
| 20260901070056 | 68 | 157 | 0.0 | 3.0 | 0.00 | 1.33 | 0.03 | 98 | 1014.8 |
| 20260901064551 | 68 | 220 | 0.0 | 3.0 | 0.00 | 1.33 | 0.03 | 98 | 1015.2 |
| 20260901063050 | 68 | 204 | 0.0 | 1.0 | 0.00 | 1.33 | 0.03 | 98 | 1015.4 |
| 20260901061555 | 68 | 204 | 0.0 | 0.0 | 0.00 | 1.33 | 0.03 | 98 | 1015.6 |
| 20260901060055 | 69 | 204 | 0.0 | 0.0 | 0.00 | 1.33 | 0.03 | 98 | 1015.8 |
| 20260901054552 | 69 | 204 | 0.0 | 0.0 | 0.01 | 1.33 | 0.03 | 98 | 1016.1 |
| 20260901053059 | 69 | 204 | 0.0 | 1.0 | 0.03 | 1.33 | 0.03 | 98 | 1015.9 |
| 20260901051552 | 69 | 204 | 0.0 | 1.0 | 0.03 | 1.33 | 0.03 | 98 | 1016.1 |
| 20260901050051 | 69 | 213 | 0.0 | 1.0 | 0.03 | 1.33 | 0.03 | 98 | 1016.4 |
| 20260901044543 | 69 | 213 | 0.0 | 2.0 | 0.02 | 1.32 | 0.02 | 98 | 1016.4 |
| 20260901043058 | 69 | 129 | 0.0 | 1.0 | 0.00 | 1.30 | 0.00 | 98 | 1016.5 |
| 20260901041549 | 68 | 116 | 0.0 | 1.0 | 0.00 | 1.30 | 0.00 | 98 | 1016.4 |
| 20260901040100 | 68 | 116 | 0.0 | 0.0 | 0.00 | 1.30 | 0.00 | 98 | 1016.5 |
| 20260901034547 | 68 | 116 | 0.0 | 0.0 | 0.00 | 1.30 | 1.30 | 98 | 1016.5 |
| 20260901033038 | 69 | 116 | 0.0 | 0.0 | 0.00 | 1.30 | 1.30 | 98 | 1016.9 |
| 20260901031554 | 69 | 116 | 0.0 | 0.0 | 0.00 | 1.30 | 1.30 | 98 | 1016.9 |
| 20260901030054 | 69 | 116 | 0.0 | 1.0 | 0.00 | 1.30 | 1.30 | 98 | 1017.1 |
| 20260901024518 | 69 | 116 | 0.0 | 0.0 | 0.00 | 1.30 | 1.30 | 98 | 1017.2 |
| 20260901023039 | 68 | 116 | 0.0 | 0.0 | 0.00 | 1.30 | 1.30 | 98 | 1017.3 |